Regional Weather Roundup
Issued by NWS Northern Indiana

Home | Current Version | Previous Version | Graphics & Text | Print | Product List | Glossary On
Versions: 1 2 3 4 5 6 7 8 9 10 11 12 13 14 15 16 17 18 19 20 21 22 23 24 25 26 27 28 29 30 31 32 33 34 35 36 37 38 39 40 41 42 43 44 45 46 47 48 49 50
000
ASUS43 KIWX 211410
RWRIWX

KIWX WEATHER ROUNDUP
NATIONAL WEATHER SERVICE NORTHERN INDIANA
1000 AM EDT MON AUG 21 2017

NOTE: "FAIR" INDICATES FEW OR NO CLOUDS BELOW 12,000 FEET WITH NO
SIGNIFICANT WEATHER AND/OR OBSTRUCTIONS TO VISIBILITY.

* THESE STATIONS ARE NOT UNDER NWS QUALITY CONTROL. THEY ALSO MAY NOT
  REPORT WEATHER SUCH AS PRECIPITATION OR FOG.

INZ001>027-211500-
NORTHERN INDIANA

CITY           SKY/WX    TMP DP  RH WIND       PRES   REMARKS
GARY*          CLOUDY    77  72  83 SW7       30.08R
VALPARAISO     CLOUDY    76  71  85 S8        30.08F
MICHIGAN CITY* MOSUNNY   77  68  73 SW13      30.08S
LAPORTE*       PTSUNNY   75  69  82 S7        30.09F
KNOX*          PTSUNNY   75  70  83 S8        30.07F
SOUTH BEND     CLOUDY    78  71  79 SW16      30.08F
ELKHART*       SUNNY     79  68  69 SW9       30.08F
MONTICELLO*    PTSUNNY   74  72  93 S8        30.09F
LOGANSPORT*    MOSUNNY   73  70  88 SW9       30.11F
ROCHESTER*     MOSUNNY   77  72  83 SW6       30.10S
WARSAW*        CLOUDY    75  70  83 S6        30.10S
AUBURN*        MOSUNNY   79  68  69 CALM      30.11S
FORT WAYNE     PTSUNNY   78  68  71 S8        30.12S
HUNTINGTON*    CLOUDY    75  68  78 S6        30.12S
PERU/GRISSOM   CLOUDY    77  73  88 SW10      30.10S
MARION*        CLOUDY    77  72  83 SW10      30.13S

$$
INZ028>050-211500-
CENTRAL INDIANA

CITY           SKY/WX    TMP DP  RH WIND       PRES   REMARKS
LAFAYETTE      PTSUNNY   75  73  93 SW5       30.10S
MUNCIE*        SUNNY     83  71  67 SW8       30.13S
INDIANAPOLIS   PTSUNNY   80  70  71 SW9       30.12S

$$
MIZ043>046-050>051-056>058-064>065-071>073-077>080-211500-
SOUTHWEST LOWER MICHIGAN

CITY           SKY/WX    TMP DP  RH WIND       PRES   REMARKS
BATTLE CREEK   PTSUNNY   76  68  76 S7        30.10S
BENTON HARBOR  MOSUNNY   78  67  68 SW5       30.06F
COLDWATER*     SUNNY     79  67  68 SW5       30.10S
HILLSDALE*     CLOUDY    77  68  73 S5        30.11S
HOLLAND        CLOUDY    76  68  76 S6        30.07F
GRAND RAPIDS   CLOUDY    75  68  78 SE3       30.08F
KALAMAZOO      CLOUDY    78  66  66 S5        30.08S
STURGIS*       SUNNY     78  69  73 SW5       30.09S
THREE RIVERS*  FAIR      80  67  66 SW5       30.09S

$$
OHZ001>008-015>018-024>025-211500-
NORTHWEST OHIO

CITY           SKY/WX    TMP DP  RH WIND       PRES   REMARKS
WAUSEON*       FAIR      77  70  78 SE6       30.11R
DEFIANCE       PTSUNNY   75  67  76 S3        30.11S
FINDLAY        CLOUDY    78  68  71 SW5       30.11F
TOLEDO EXPRESS PTSUNNY   74  70  87 CALM      30.10F
TOLEDO METCALF MOSUNNY   79  69  71 S6        30.12F
LIMA           CLOUDY    78  68  71 S6        30.13F

$$
AND FOR LAKE MICHIGAN COASTAL AND OPEN LAKE BUOY OBSERVATIONS

STATION/POSITION TEMP    WIND        PRES    VSBY  WAVE
                 AIR SEA DIR/SP/G                  HT/PER
                 (F)     (DEG/KT/KT) (MB)    (MI)  (FT/S)
CALUMET HARBOR    75     220/  4/ 10 1017.5S
MICHIGAN CITY     74     190/  9/ 11   N/A
BURNS HARBOR      74     200/ 10/ 16 1018.6
SAINT JOSEPH      74     210/  5/  7 1018.6
SOUTH LAKE BUOY   72 71  220/  6/  6 1017.8          1/ 3
4 MI NW BRIDGMAN  74 74  260/  4/  6 1017.9          1/ 3
MICHIGAN CITY     74 74  210/ 10/ 12   N/A           1

$$
&&




USA.gov is the U.S. government's official web portal to all federal, state and local government web resources and services.